Renton, WA
on Thursday, January 3, 2013

Thursday
Previous Day Next Day
Daily Summary
 ActualAverage (KSEA)Record (KSEA)
Temperature
Mean Temperature °F 41°F  
Max Temperature 46°F 46°F 58°F (1984)
Min Temperature 27°F 36°F 6°F (1950)
Degree Days
Heating Degree Days 28 24  
Month to date heating degree days 72  
Since 1 July heating degree days 2010  
Cooling Degree Days 0 0  
Month to date cooling degree days 0  
Year to date cooling degree days 0  
Moisture
Dew Point 24°F   
Average Humidity 64    
Maximum Humidity 92    
Minimum Humidity 34    
Precipitation
Precipitation 0.11 in 0.19 in 1.01 in (1978)
Month to date precipitation 0.55  
Year to date precipitation 0.55  
Snow
Snow 0.00 in in 2.60 in (1952)
Month to date snowfall  
Since 1 July snowfall  
Snow Depth in   
Wind
Wind Speed 3 mph   
Max Wind Speed 10 mph   
Max Gust Speed 16 mph   
Visibility 10 miles   
Events Rain   

Key: T is trace of precipitation, MM is missing value
Source: NWS Daily Summary
Time(PST)TemperatureDew PointHumidity Pressure Visibility Wind DirectionWind SpeedGust SpeedPrecipitationEvents Conditions
12:53 AM 36.0°F 18.0°F 48% 30.20 in 10.0 miles SE 4.6 mph - N/A   Clear
1:53 AM 33.1°F 19.0°F 56% 30.22 in 10.0 miles Calm Calm - N/A   Clear
2:53 AM 30.9°F 24.1°F 76% 30.22 in 10.0 miles SSE 4.6 mph - N/A   Clear
3:53 AM 28.9°F 25.0°F 85% 30.20 in 10.0 miles Calm Calm - N/A   Clear
4:53 AM 28.0°F 24.1°F 85% 30.18 in 9.0 miles Calm Calm - N/A   Clear
5:53 AM 27.0°F 25.0°F 92% 30.17 in 9.0 miles Calm Calm - N/A   Clear
6:53 AM 27.0°F 24.1°F 89% 30.15 in 9.0 miles SE 4.6 mph - N/A   Clear
7:53 AM 27.0°F 24.1°F 89% 30.15 in 9.0 miles Calm Calm - N/A   Clear
8:53 AM 34.0°F 19.0°F 54% 30.15 in 10.0 miles SSE 3.5 mph - N/A   Clear
9:53 AM 37.0°F 21.0°F 52% 30.16 in 10.0 miles Calm Calm - N/A   Clear
10:53 AM 41.0°F 21.0°F 45% 30.16 in 10.0 miles South 6.9 mph - N/A   Clear
11:53 AM 43.0°F 21.0°F 42% 30.14 in 10.0 miles SSE 8.1 mph - N/A   Clear
12:53 PM 45.0°F 19.0°F 36% 30.13 in 10.0 miles SSE 8.1 mph - N/A   Clear
1:53 PM 46.0°F 19.0°F 34% 30.12 in 10.0 miles SE 5.8 mph - N/A   Clear
2:53 PM 45.0°F 19.9°F 37% 30.14 in 10.0 miles South 10.4 mph - N/A   Clear
3:53 PM 43.0°F 19.9°F 40% 30.15 in 10.0 miles ESE 8.1 mph - N/A   Overcast
4:53 PM 41.0°F 19.9°F 43% 30.14 in 10.0 miles South 8.1 mph - N/A   Overcast
5:53 PM 42.1°F 19.9°F 41% 30.12 in 10.0 miles East 3.5 mph - N/A   Overcast
6:53 PM 37.9°F 30.0°F 73% 30.15 in 8.0 miles Calm Calm - 0.03 in Rain Light Rain
7:53 PM 37.0°F 30.9°F 79% 30.15 in 10.0 miles East 10.4 mph 16.1 mph 0.02 in Rain Light Rain
8:53 PM 37.0°F 33.1°F 86% 30.15 in 10.0 miles ESE 4.6 mph - 0.01 in Rain Light Rain
9:53 PM 37.9°F 33.1°F 83% 30.17 in 10.0 miles Calm Calm - 0.02 in Rain Light Rain
10:53 PM 37.0°F 34.0°F 89% 30.18 in 9.0 miles Calm Calm - 0.01 in Rain Light Rain
11:53 PM 37.0°F 34.0°F 89% 30.19 in 6.0 miles Calm Calm - 0.02 in Rain Light Rain
Moon Phase
Jan. 03 Jan. 04 Jan. 11 Jan. 18 Jan. 26
Sunrise:07:56 AM (PST) Moon Rise:11:43 PM (PST)1/3
Sunset:04:30 PM (PST) Moon Set:10:42 AM (PST)1/3

Copyright © 2014 The Weather Underground, Inc.